Superior, WI

12:04 AM CDT on September 27, 2016 (GMT -0500)
Bong

Weather History for KSUW - December, 2013

Change the Weather History Date:

Sunday, December 29, 2013

  Actual Average Record
Temperature  
Mean Temperature -3 °F -  
Max Temperature 10 °F 21 °F 51 °F (1999)
Min Temperature -16 °F 5 °F -19 °F (1963)
Degree Days  
Heating Degree Days 68    
Moisture  
Dew Point -15 °F    
Average Humidity 65    
Maximum Humidity 75    
Minimum Humidity 55    
Precipitation  
Precipitation 0.00 in - - ()
Sea Level Pressure  
Sea Level Pressure 30.25 in    
Wind  
Wind Speed 9 mph (NW)    
Max Wind Speed 13 mph    
Max Gust Speed 18 mph    
Visibility 10 miles    
Events Snow    
Averages and records for this station are not official NWS values.
T = Trace of Precipitation, MM = Missing Value Source: NWS Daily Summary

Daily Weather History Graph

Daily Weather History Graph

Search for Another Location

Airport or City:

Trip Planner

Search our weather history database for the weather conditions in past years. The results will help you decide how hot, cold, wet, or windy it might be!

Date:

Astronomy

Dec. 29, 2013 Rise Set
Actual Time 7:52 AM CST 4:28 PM CST
Civil Twilight 7:17 AM CST 5:03 PM CST
Nautical Twilight 6:39 AM CST 5:42 PM CST
Astronomical Twilight 6:02 AM CST 6:19 PM CST
Moon 4:31 AM CST (12/29) 2:11 PM CST (12/29)
Length of Visible Light 9h 46m
Length of Day
8h 35m
Waning Crescent, 11% of the Moon is Illuminated
Dec 29
Waning Crescent
Jan 1
New
Jan 7
First Quarter
Jan 15
Full
Jan 23
Last Quarter

Hourly Weather History & Observations

Time (CST) Temp. Windchill Dew Point Humidity Pressure Visibility Wind Dir Wind Speed Gust Speed Precip Events Conditions
12:15 AM 10.6 °F -3.1 °F 4.1 °F 75% 30.10 in 10.0 mi North 10.4 mph - N/A Snow Light Snow
12:35 AM 9.9 °F -4.0 °F 3.2 °F 74% 30.11 in 10.0 mi North 10.4 mph - N/A Snow Light Snow
12:55 AM 9.3 °F -4.6 °F 2.7 °F 74% 30.11 in 10.0 mi North 10.4 mph - N/A Snow Light Snow
1:15 AM 8.1 °F -5.3 °F 1.2 °F 74% 30.13 in 10.0 mi North 9.2 mph - N/A   Overcast
1:35 AM 7.0 °F -5.7 °F 0.3 °F 74% 30.15 in 10.0 mi NNW 8.1 mph - N/A   Overcast
1:55 AM 6.4 °F -8.2 °F -0.4 °F 74% 30.16 in 10.0 mi North 10.4 mph - N/A   Overcast
2:15 AM 5.9 °F -8.0 °F -1.3 °F 72% 30.17 in 10.0 mi North 9.2 mph - N/A   Overcast
2:35 AM 5.4 °F -9.6 °F -1.7 °F 73% 30.18 in 10.0 mi North 10.4 mph - N/A   Overcast
2:55 AM 4.1 °F -12.0 °F -3.1 °F 72% 30.19 in 10.0 mi North 11.5 mph - N/A   Overcast
3:15 AM 3.2 °F -12.2 °F -4.0 °F 72% 30.20 in 10.0 mi NNW 10.4 mph - N/A   Overcast
3:35 AM 2.3 °F -14.2 °F -5.3 °F 71% 30.20 in 10.0 mi North 11.5 mph - N/A   Overcast
3:55 AM 1.8 °F -10.8 °F -5.6 °F 71% 30.20 in 10.0 mi North 6.9 mph - N/A   Overcast
4:15 AM 0.5 °F -17.3 °F -7.4 °F 69% 30.21 in 10.0 mi NNW 12.7 mph 17.3 mph N/A   Overcast
4:35 AM -0.6 °F -16.0 °F -8.5 °F 69% 30.22 in 10.0 mi North 9.2 mph 18.4 mph N/A   Mostly Cloudy
4:55 AM -1.7 °F -14.9 °F -9.2 °F 70% 30.23 in 10.0 mi North 6.9 mph - N/A   Scattered Clouds
5:15 AM -2.2 °F -15.6 °F -9.8 °F 70% 30.24 in 10.0 mi NNW 6.9 mph - N/A   Clear
5:35 AM -3.3 °F -22.1 °F -11.0 °F 69% 30.26 in 10.0 mi NNW 12.7 mph 17.3 mph N/A   Clear
5:55 AM -4.2 °F -16.5 °F -11.7 °F 70% 30.27 in 10.0 mi North 5.8 mph - N/A   Clear
6:15 AM -5.1 °F -19.1 °F -12.3 °F 71% 30.28 in 10.0 mi North 6.9 mph - N/A   Clear
6:35 AM -5.3 °F -19.3 °F -13.0 °F 69% 30.29 in 10.0 mi North 6.9 mph - N/A   Clear
6:55 AM -6.2 °F -22.8 °F -13.9 °F 69% 30.29 in 10.0 mi NNW 9.2 mph - N/A   Clear
7:15 AM -6.3 °F -23.1 °F -14.6 °F 67% 30.29 in 10.0 mi NNW 9.2 mph - N/A   Clear
7:35 AM -7.1 °F -21.4 °F -14.8 °F 69% 30.29 in 10.0 mi NNW 6.9 mph - N/A   Clear
7:55 AM -8.5 °F -25.7 °F -16.1 °F 70% 30.30 in 10.0 mi NNW 9.2 mph - N/A   Clear
8:15 AM -9.4 °F -25.6 °F -17.3 °F 68% 30.31 in 10.0 mi NW 8.1 mph - N/A   Clear
8:35 AM -9.4 °F -28.9 °F -17.3 °F 68% 30.31 in 10.0 mi NW 11.5 mph - N/A   Clear
8:55 AM -9.0 °F -26.4 °F -17.5 °F 66% 30.31 in 10.0 mi NNW 9.2 mph - N/A   Clear
9:15 AM -8.5 °F -24.5 °F -17.3 °F 65% 30.32 in 10.0 mi NNW 8.1 mph - N/A   Scattered Clouds
9:35 AM -8.3 °F -21.4 °F -17.3 °F 65% 30.32 in 10.0 mi NNW 5.8 mph - N/A   Mostly Cloudy
9:55 AM -7.8 °F -23.6 °F -16.6 °F 65% 30.32 in 10.0 mi NNW 8.1 mph - N/A   Overcast
10:15 AM -7.1 °F -21.4 °F -17.0 °F 62% 30.32 in 10.0 mi North 6.9 mph - N/A   Overcast
10:35 AM -7.6 °F -24.6 °F -17.5 °F 62% 30.32 in 10.0 mi NW 9.2 mph - N/A   Overcast
10:55 AM -6.9 °F -23.7 °F -17.0 °F 62% 30.31 in 10.0 mi NW 9.2 mph - N/A   Overcast
11:15 AM -7.2 °F -24.2 °F -18.4 °F 58% 30.32 in 10.0 mi NNW 9.2 mph - N/A   Mostly Cloudy
11:35 AM -7.2 °F -24.2 °F -18.0 °F 59% 30.31 in 10.0 mi NW 9.2 mph - N/A   Mostly Cloudy
11:55 AM -6.9 °F -26.6 °F -18.0 °F 58% 30.30 in 10.0 mi NW 12.7 mph - N/A   Scattered Clouds
12:15 PM -6.5 °F -17.5 °F -17.3 °F 60% 30.30 in 10.0 mi NW 4.6 mph - N/A   Clear
12:35 PM -5.8 °F -21.2 °F -17.5 °F 57% 30.29 in 10.0 mi NW 8.1 mph - N/A   Clear
12:55 PM -5.3 °F -19.3 °F -16.8 °F 58% 30.29 in 10.0 mi WNW 6.9 mph - N/A   Clear
1:15 PM -4.5 °F -20.8 °F -17.0 °F 55% 30.28 in 10.0 mi WNW 9.2 mph - N/A   Clear
1:35 PM -4.5 °F -21.9 °F -16.2 °F 57% 30.27 in 10.0 mi NW 10.4 mph - N/A   Clear
1:55 PM -4.4 °F -19.5 °F -16.2 °F 57% 30.26 in 10.0 mi WNW 8.1 mph - N/A   Clear
2:15 PM -4.5 °F -20.8 °F -16.2 °F 57% 30.26 in 10.0 mi WNW 9.2 mph - N/A   Clear
2:35 PM -4.2 °F -19.3 °F -16.2 °F 56% 30.25 in 10.0 mi NNW 8.1 mph - N/A   Clear
2:55 PM -4.2 °F -20.4 °F -16.6 °F 55% 30.25 in 10.0 mi NW 9.2 mph - N/A   Clear
3:15 PM -4.7 °F -19.9 °F -16.1 °F 58% 30.25 in 10.0 mi WNW 8.1 mph - N/A   Clear
3:35 PM -4.9 °F -21.3 °F -17.5 °F 55% 30.26 in 10.0 mi WNW 9.2 mph - N/A   Clear
3:55 PM -5.3 °F -19.3 °F -17.0 °F 57% 30.26 in 10.0 mi West 6.9 mph - N/A   Clear
4:15 PM -6.0 °F -18.6 °F -17.7 °F 57% 30.25 in 10.0 mi WNW 5.8 mph - N/A   Clear
4:35 PM -6.9 °F -21.2 °F -18.6 °F 57% 30.26 in 10.0 mi West 6.9 mph - N/A   Clear
4:55 PM -7.6 °F -22.1 °F -19.1 °F 57% 30.25 in 10.0 mi WNW 6.9 mph - N/A   Clear
5:15 PM -8.0 °F -19.2 °F -19.5 °F 57% 30.26 in 10.0 mi West 4.6 mph - N/A   Clear
5:35 PM -8.1 °F -24.1 °F -19.7 °F 57% 30.26 in 10.0 mi WNW 8.1 mph - N/A   Clear
5:55 PM -8.5 °F -17.6 °F -19.7 °F 58% 30.25 in 10.0 mi West 3.5 mph - N/A   Clear
6:15 PM -8.3 °F -19.6 °F -18.8 °F 60% 30.25 in 10.0 mi WSW 4.6 mph - N/A   Clear
6:35 PM -9.6 °F -21.1 °F -19.7 °F 61% 30.25 in 10.0 mi West 4.6 mph - N/A   Clear
6:55 PM -9.6 °F -21.1 °F -20.0 °F 60% 30.25 in 10.0 mi WSW 4.6 mph - N/A   Clear
7:15 PM -11.2 °F -24.8 °F -20.9 °F 62% 30.25 in 10.0 mi West 5.8 mph - N/A   Clear
7:35 PM -11.6 °F -23.4 °F -20.9 °F 63% 30.25 in 10.0 mi West 4.6 mph - N/A   Clear
7:55 PM -15.2 °F -27.6 °F -22.7 °F 69% 30.26 in 10.0 mi SSW 4.6 mph - N/A   Clear
8:15 PM -12.1 °F -24.0 °F -20.0 °F 68% 30.25 in 10.0 mi SW 4.6 mph - N/A   Clear
8:35 PM -12.5 °F -24.4 °F -20.9 °F 66% 30.25 in 10.0 mi SW 4.6 mph - N/A   Clear
8:55 PM -13.4 °F -27.4 °F -21.3 °F 68% 30.25 in 10.0 mi SW 5.8 mph - N/A   Clear
9:15 PM -12.1 °F -25.9 °F -21.5 °F 63% 30.26 in 10.0 mi WSW 5.8 mph - N/A   Clear
9:35 PM -13.5 °F -27.6 °F -21.8 °F 66% 30.26 in 10.0 mi SW 5.8 mph - N/A   Clear
9:55 PM -13.9 °F -29.7 °F -21.8 °F 68% 30.26 in 10.0 mi SW 6.9 mph - N/A   Clear
10:15 PM -13.9 °F -29.7 °F -22.0 °F 67% 30.26 in 10.0 mi SW 6.9 mph - N/A   Clear
10:35 PM -14.3 °F -30.1 °F -22.0 °F 68% 30.26 in 10.0 mi WSW 6.9 mph - N/A   Clear
10:55 PM -15.0 °F -29.3 °F -22.5 °F 69% 30.26 in 10.0 mi WSW 5.8 mph - N/A   Clear
11:15 PM -15.7 °F -31.9 °F -22.9 °F 70% 30.26 in 10.0 mi WSW 6.9 mph - N/A   Clear
11:35 PM -16.4 °F -31.0 °F -23.8 °F 69% 30.26 in 10.0 mi SW 5.8 mph - N/A   Clear
11:55 PM -16.6 °F -32.9 °F -23.8 °F 70% 30.26 in 10.0 mi WSW 6.9 mph - N/A   Clear